TimeCDT,TemperatureF,Dew PointF,Humidity,Sea Level PressureIn,VisibilityMPH,Wind Direction,Wind SpeedMPH,Gust SpeedMPH,PrecipitationIn,Events,Conditions,WindDirDegrees,DateUTC
12:05 AM,66.2,64.4,94,29.96,10.0,East,5.8,-,N/A,,Overcast,80,2013-05-03 05:05:00
12:29 AM,66.2,64.4,94,29.95,10.0,Variable,4.6,-,0.00,,Mostly Cloudy,0,2013-05-03 05:29:00
12:51 AM,66.2,64.4,94,29.95,10.0,East,4.6,-,0.01,,Overcast,90,2013-05-03 05:51:00
12:53 AM,66.0,64.0,93,29.95,10.0,East,5.8,-,0.01,,Overcast,80,2013-05-03 05:53:00
1:49 AM,66.2,64.4,94,29.94,10.0,ESE,5.8,-,0.00,,Mostly Cloudy,110,2013-05-03 06:49:00
1:53 AM,66.0,64.0,93,29.93,10.0,East,5.8,-,0.00,,Overcast,100,2013-05-03 06:53:00
2:12 AM,66.2,64.4,94,29.93,10.0,Calm,Calm,-,N/A,,Mostly Cloudy,0,2013-05-03 07:12:00
2:53 AM,64.9,64.0,97,29.92,10.0,Calm,Calm,-,0.00,Rain,Light Rain,0,2013-05-03 07:53:00
3:49 AM,64.4,64.4,100,29.92,10.0,East,3.5,-,0.00,,Overcast,90,2013-05-03 08:49:00
3:53 AM,64.9,63.0,93,29.91,10.0,Calm,Calm,-,0.00,,Overcast,0,2013-05-03 08:53:00
4:53 AM,64.9,63.0,93,29.91,10.0,East,3.5,-,N/A,,Overcast,90,2013-05-03 09:53:00
5:21 AM,64.4,62.6,94,29.92,10.0,Calm,Calm,-,N/A,,Overcast,0,2013-05-03 10:21:00
5:53 AM,64.9,63.0,93,29.91,10.0,Calm,Calm,-,N/A,,Overcast,0,2013-05-03 10:53:00
6:45 AM,64.4,62.6,94,29.93,9.0,East,3.5,-,N/A,,Overcast,100,2013-05-03 11:45:00
6:53 AM,64.9,63.0,93,29.92,10.0,Calm,Calm,-,N/A,,Overcast,0,2013-05-03 11:53:00
7:05 AM,64.4,62.6,94,29.93,10.0,ESE,3.5,-,N/A,,Overcast,110,2013-05-03 12:05:00
7:32 AM,64.4,62.6,94,29.93,10.0,ESE,3.5,-,N/A,,Overcast,110,2013-05-03 12:32:00
7:53 AM,66.0,63.0,90,29.93,10.0,Variable,5.8,-,N/A,,Overcast,0,2013-05-03 12:53:00
8:48 AM,66.2,62.6,88,29.93,10.0,ESE,8.1,-,N/A,,Overcast,110,2013-05-03 13:48:00
8:53 AM,66.9,62.1,84,29.93,10.0,ESE,9.2,-,N/A,,Overcast,110,2013-05-03 13:53:00
9:53 AM,70.0,63.0,78,29.92,10.0,SE,8.1,-,N/A,,Overcast,140,2013-05-03 14:53:00
10:53 AM,70.0,62.1,76,29.92,10.0,SE,5.8,-,N/A,,Overcast,130,2013-05-03 15:53:00
11:53 AM,72.0,62.1,71,29.89,10.0,South,8.1,-,N/A,,Overcast,170,2013-05-03 16:53:00
12:34 PM,73.4,62.6,69,29.88,10.0,SE,8.1,-,N/A,,Overcast,130,2013-05-03 17:34:00
12:53 PM,61.0,57.0,87,29.90,3.0,WNW,16.1,24.2,0.09,Rain,Light Rain,290,2013-05-03 17:53:00
12:55 PM,60.8,57.2,88,29.91,1.5,WNW,18.4,26.5,0.10,Rain,Heavy Rain,300,2013-05-03 17:55:00
12:58 PM,59.0,55.4,88,29.91,0.8,NW,18.4,26.5,0.19,Rain,Heavy Rain,310,2013-05-03 17:58:00
1:08 PM,57.2,55.4,94,29.91,2.0,NW,11.5,24.2,0.26,Rain,Rain,320,2013-05-03 18:08:00
1:16 PM,57.2,55.4,94,29.92,9.0,NW,13.8,-,0.26,Rain,Light Rain,310,2013-05-03 18:16:00
1:53 PM,59.0,55.9,90,29.91,10.0,WNW,16.1,19.6,0.27,Rain,Light Rain,300,2013-05-03 18:53:00
2:41 PM,57.2,51.8,82,29.92,10.0,NW,19.6,25.3,0.00,,Overcast,320,2013-05-03 19:41:00
2:51 PM,57.2,51.8,82,29.92,10.0,NW,13.8,23.0,0.00,,Overcast,310,2013-05-03 19:51:00
2:53 PM,57.0,52.0,83,29.91,10.0,NW,15.0,23.0,0.00,,Overcast,310,2013-05-03 19:53:00
3:13 PM,55.4,51.8,88,29.92,10.0,NW,15.0,20.7,N/A,,Overcast,320,2013-05-03 20:13:00
3:24 PM,55.4,51.8,88,29.92,9.0,NW,12.7,23.0,0.00,Rain,Light Rain,320,2013-05-03 20:24:00
3:53 PM,55.0,52.0,89,29.91,10.0,NNW,8.1,-,0.00,,Overcast,330,2013-05-03 20:53:00
4:12 PM,53.6,51.8,94,29.92,7.0,NNW,11.5,19.6,0.00,Rain,Light Rain,330,2013-05-03 21:12:00
4:31 PM,53.6,50.0,88,29.92,10.0,NW,16.1,24.2,0.01,Rain,Light Rain,320,2013-05-03 21:31:00
4:38 PM,53.6,50.0,88,29.92,7.0,NW,15.0,23.0,0.01,Rain,Light Rain,320,2013-05-03 21:38:00
4:53 PM,53.1,51.1,93,29.93,4.0,NW,13.8,19.6,0.01,Rain,Light Rain,320,2013-05-03 21:53:00
5:10 PM,53.6,51.8,94,29.93,2.5,NNW,9.2,-,0.03,Rain,Rain,330,2013-05-03 22:10:00
5:22 PM,53.6,51.8,94,29.93,3.0,NNW,6.9,-,0.04,Rain,Light Rain,330,2013-05-03 22:22:00
5:53 PM,53.1,50.0,89,29.94,10.0,NW,11.5,21.9,0.05,,Overcast,320,2013-05-03 22:53:00
6:06 PM,51.8,48.2,88,29.94,10.0,NW,12.7,-,N/A,,Overcast,320,2013-05-03 23:06:00
6:10 PM,51.8,48.2,88,29.94,10.0,NW,11.5,-,N/A,,Overcast,320,2013-05-03 23:10:00
6:21 PM,51.8,48.2,88,29.95,10.0,NNW,9.2,-,N/A,,Overcast,330,2013-05-03 23:21:00
6:53 PM,51.1,48.0,89,29.96,6.0,NW,10.4,19.6,0.01,Rain,Light Rain,310,2013-05-03 23:53:00
7:39 PM,50.0,46.4,87,29.98,9.0,NW,12.7,20.7,0.00,,Overcast,310,2013-05-04 00:39:00
7:53 PM,48.9,46.0,90,29.99,6.0,WNW,17.3,20.7,0.00,,Overcast,300,2013-05-04 00:53:00
8:32 PM,48.2,44.6,87,30.01,10.0,NW,11.5,21.9,N/A,,Overcast,320,2013-05-04 01:32:00
8:53 PM,48.0,44.1,86,30.02,10.0,NW,16.1,25.3,N/A,,Overcast,320,2013-05-04 01:53:00
9:27 PM,48.2,42.8,82,30.04,10.0,NNW,16.1,24.2,N/A,,Overcast,330,2013-05-04 02:27:00
9:53 PM,48.0,42.1,80,30.05,10.0,NNW,9.2,-,N/A,,Overcast,330,2013-05-04 02:53:00
10:21 PM,46.4,42.8,87,30.04,10.0,NNW,9.2,18.4,N/A,,Mostly Cloudy,340,2013-05-04 03:21:00
10:53 PM,46.9,42.1,83,30.04,10.0,North,6.9,-,N/A,,Mostly Cloudy,350,2013-05-04 03:53:00
11:53 PM,46.0,42.1,86,30.04,10.0,NNW,5.8,-,N/A,,Mostly Cloudy,330,2013-05-04 04:53:00